Showing default

SUOMI100, 43804

Orbit data source: Space-Track

SUOMI100, 43804 is a payload satellite owned by Aalto univ. (FI) in SSO that was launched on Mon, 03 Dec 2018 UTC via an FALCON 9 launch vehicle from the Air Force Western Test Range (AFWTR). Payload-class satellites include a variety of spacecraft equipped with specific instruments for various scientific and technological missions. These include communications satellites like Starlink; space stations such as the ISS; scientific satellites like the Hubble; Earth observation satellites from companies like Planet Labs, Umbra, and HawkEye 360; GPS; miniature CubeSats for education and research; and military/defense satellites.

Loading next visibility...
Identifier
43804, 2018-099AY
Orbit
SSO
Country
Flag of FIFI / FIN
Related business
Manufacturer
Aalto univ.
Mission
Operational Amateur Technology
Bus & Motor
CUBESAT 1U, Unknown motor
Mass
1 kg wet, 1 kg dry
Launch date (UTC)
2018-12-03 (8 years ago)
Launch vehicle
FALCON 9
Launch site
Air Force Western Test Range (AFWTR)
Object type
Payload
Rocket body
Debris
Shape & HBR
Box, 0.1 m
Radar Cross Section
0.015 m², Medium (>0.1 m² and < 1m²)

Expand to show TLE details & history
Last TLE update: 21 hours ago

TLE from 21 hours ago
0 SUOMI100
1 43804U 18099AY  26235.41102571  .00010094  00000-0  35130-3 0  9994
2 43804  97.4135 295.6008 0010650  50.6036 309.6145 15.29837450423698
Epoch: 2026-08-23T09:51Z
TLE epoch observation values (Epoch: 2026-08-23T09:51:52.621Z)
Latitude
-0.0001°
Longitude
175.92409°
Altitude
474.75 km
Speed
7.631 km/s
True Right ascension
19h 42m 24s
True Declination
0° 00' 00"
Sunlit
Object was in full shadow at epoch
Visualization orbit readout
Latitude
Unknown
Longitude
Unknown
Altitude
Unknown
Speed
Unknown
Apparent Right ascension
Unknown
Apparent Declination
Unknown
Sunlit
N/A
Visualization observer readout
Local Sidereal Time
21:34:35
Azimuth
Unknown
Elevation
Unknown
Doppler factor
Unknown
Orbital elements
Apogee altitude
480.548 km
Perigee altitude
465.954 km
Semi-major axis
6,851.388 km
Eccentricity
0.00107
Inclination
97.4135°
RAAN
295.6008°
Arg. of periapsis
50.6036°
True anomaly
309.52041°
Mean anomaly
309.6145°
Eccentric anomaly
309.56746°
Mean motion
3.82715 °/min
Orbital period
94.06 mins
BSTAR
0.0003513
Loading maneuver chart data...
Computing Atmospheric mass density...
Loading historical data...
Loading historical data...
Loading historical data...
Loading historical data...
Loading historical data...
Loading historical data...
Loading historical data...

Documentation

Showing up to 5 results
|